Waarnemingen

Advertentie
Mijn weer
Aguilas, Spanje (8432): temperatuur & dauwpunt: 13.07.2018 23:00:00 - 19.07.2018 23:00:00 (CEST)Aguilas, Spanje (8432): windsnelheid & windstoten: 13.07.2018 23:00:00 - 19.07.2018 23:00:00 (CEST)Aguilas, Spanje (8432): windrichting: 13.07.2018 23:00:00 - 19.07.2018 23:00:00 (CEST)Aguilas, Spanje (8432): luchtdruk: 13.07.2018 23:00:00 - 19.07.2018 23:00:00 (CEST)Aguilas, Spanje (8432): zicht: 13.07.2018 23:00:00 - 19.07.2018 23:00:00 (CEST)Aguilas, Spanje (8432): Zonneschijnduur: 13.07.2018 23:00:00 - 19.07.2018 23:00:00 (CEST)Aguilas, Spanje (8432): neerslag: 13.07.2018 23:00:00 - 19.07.2018 23:00:00 (CEST)
Datum & Tijd tt [°C] td [°C] ff [km/u] ff [kn] fx [km/u] fx [kn] dd ppp [hPa] vv [km] sd [min] rr [mm]
19.07.2018 23:00:00 - - - - - - - - - - -
19.07.2018 22:00:00 25,3 16,1 4 2 11 6 N 1014,4 20 0 0,0
19.07.2018 21:00:00 24,9 18,1 3 2 17 9 WZW 1014,5 20 0 0,0
19.07.2018 20:00:00 26,0 18,7 10 5 19 11 Z 1013,5 20 34 -
19.07.2018 19:00:00 26,6 18,7 5 3 22 12 ZZW 1013,4 20 60 0,0
19.07.2018 18:00:00 27,6 18,8 8 5 16 9 ZZW 1013,8 20 56 0,0
19.07.2018 17:00:00 27,5 20,1 8 4 20 11 ZZW 1014,6 20 59 0,0
19.07.2018 16:00:00 27,7 19,8 9 5 23 13 ZZW 1015,0 20 59 0,0
19.07.2018 15:00:00 27,8 18,8 10 6 20 11 Z 1014,9 20 60 0,0
19.07.2018 14:00:00 27,6 19,6 9 5 19 10 Z 1015,4 20 60 -
19.07.2018 13:00:00 27,4 19,5 8 5 18 10 ZZO 1015,6 20 60 0,0
19.07.2018 12:00:00 27,2 19,6 8 5 16 9 Z 1016,0 20 60 0,0
19.07.2018 11:00:00 26,0 20,5 8 4 20 11 Z 1016,0 20 60 0,0
19.07.2018 10:00:00 26,1 20,2 7 4 14 7 ZZO 1015,7 16 60 0,0
19.07.2018 09:00:00 25,3 19,9 7 4 11 6 OZO 1015,5 20 37 0,0
19.07.2018 08:00:00 24,1 19,2 2 1 18 10 ZW 1015,1 20 0 -
19.07.2018 07:00:00 23,4 18,7 8 5 12 6 ONO 1014,8 20 0 0,0
19.07.2018 06:00:00 23,1 18,0 3 2 11 6 WNW 1014,7 20 0 0,0
19.07.2018 05:00:00 23,2 17,6 4 2 14 7 NNW 1014,2 20 0 0,0
19.07.2018 04:00:00 23,4 18,3 4 2 9 5 NW 1014,5 20 0 0,0
19.07.2018 03:00:00 23,4 18,3 3 2 6 3 NNW 1015,0 20 0 0,0
19.07.2018 02:00:00 24,0 18,8 4 2 6 3 NNW 1015,3 20 0 -
19.07.2018 01:00:00 24,5 19,3 4 2 8 4 NW 1015,6 20 0 0,0
19.07.2018 00:00:00 25,1 19,3 3 1 6 4 OZO 1015,6 20 0 0,0
18.07.2018 23:00:00 25,2 19,6 3 2 11 6 OZO 1015,5 20 0 0,0
18.07.2018 22:00:00 25,8 19,4 6 4 17 9 ZZO 1015,1 20 0 0,0
18.07.2018 21:00:00 26,3 19,7 9 5 19 11 OZO 1014,6 20 36 0,0
18.07.2018 20:00:00 27,0 19,6 11 6 22 12 OZO 1014,5 20 60 -
18.07.2018 19:00:00 28,0 20,1 10 5 25 14 ZO 1015,0 20 60 0,0
18.07.2018 18:00:00 28,4 19,3 13 7 29 16 ZO 1013,7 20 60 0,0
18.07.2018 17:00:00 29,1 19,4 11 6 34 18 ZO 1014,3 20 60 0,0
18.07.2018 16:00:00 29,2 19,5 12 7 39 21 ZZO 1014,1 20 60 0,0
18.07.2018 15:00:00 30,7 16,6 23 13 44 24 ZO 1013,8 20 60 0,0
18.07.2018 14:00:00 31,4 14,5 20 11 31 17 ZO 1014,1 20 56 -
18.07.2018 13:00:00 32,1 12,8 18 10 29 16 OZO 1014,6 20 40 0,0
18.07.2018 12:00:00 32,8 10,8 11 6 26 14 OZO 1015,1 20 60 0,0
18.07.2018 11:00:00 31,8 10,5 6 4 24 13 ZO 1015,1 20 57 0,0
18.07.2018 10:00:00 29,5 11,6 6 3 11 6 Z 1014,7 20 48 0,0
18.07.2018 09:00:00 28,5 10,2 2 1 7 4 ZW 1014,6 20 32 0,0
18.07.2018 08:00:00 25,8 10,0 5 3 10 5 NNW 1014,1 20 0 -
18.07.2018 07:00:00 25,7 9,0 6 4 11 6 NO 1013,1 20 0 0,0
18.07.2018 06:00:00 25,9 8,4 5 3 16 9 NW 1013,8 20 0 0,0
18.07.2018 05:00:00 26,3 7,3 5 3 13 7 NO 1013,1 20 0 0,0
18.07.2018 04:00:00 25,8 7,4 3 2 11 6 NW 1014,0 20 0 0,0
18.07.2018 03:00:00 25,6 6,7 8 4 18 10 NW 1014,7 20 0 0,0
18.07.2018 02:00:00 25,7 7,3 5 3 12 6 NNO 1015,5 20 0 -
18.07.2018 01:00:00 25,6 8,5 6 4 11 6 N 1015,6 20 0 0,0
18.07.2018 00:00:00 25,8 10,4 3 1 10 5 N 1015,4 20 0 0,0
17.07.2018 23:00:00 26,3 11,2 3 1 7 4 ZZW 1015,5 20 0 0,0
17.07.2018 22:00:00 27,1 11,1 4 2 16 9 O 1014,8 15 0 0,0
17.07.2018 21:00:00 28,0 11,1 8 5 22 12 OZO 1014,8 20 5 0,0
17.07.2018 20:00:00 29,0 10,2 12 6 27 15 O 1014,2 20 60 -
17.07.2018 19:00:00 30,5 8,3 14 7 27 14 OZO 1014,5 20 60 0,0
17.07.2018 18:00:00 31,2 8,3 13 7 27 15 O 1014,9 20 60 0,0
17.07.2018 17:00:00 30,7 9,0 14 8 29 16 OZO 1016,2 20 60 0,0
17.07.2018 16:00:00 28,8 14,2 16 8 31 17 ZO 1016,2 20 60 0,0
17.07.2018 15:00:00 28,4 17,3 18 10 34 18 ZO 1016,7 20 60 0,0
17.07.2018 14:00:00 28,1 15,1 18 10 29 15 ZO 1016,0 20 60 -
17.07.2018 13:00:00 30,2 9,7 16 9 28 15 OZO 1017,0 20 60 0,0
17.07.2018 12:00:00 29,1 10,8 12 7 23 12 ZO 1017,2 20 60 0,0
17.07.2018 11:00:00 26,7 16,0 8 5 14 8 Z 1017,2 20 60 0,0
17.07.2018 10:00:00 25,8 17,5 7 4 12 6 Z 1017,3 20 60 0,0
17.07.2018 09:00:00 25,0 16,4 3 1 6 3 ZW 1016,7 20 60 0,0
17.07.2018 08:00:00 21,9 13,3 3 1 6 3 N 1016,3 20 23 -
17.07.2018 07:00:00 21,3 15,6 4 2 9 5 ONO 1016,2 20 0 0,0
17.07.2018 06:00:00 21,3 14,7 5 3 9 5 ONO 1016,1 20 0 0,0
17.07.2018 05:00:00 21,6 16,1 5 3 9 5 N 1015,9 20 0 0,0
17.07.2018 04:00:00 21,5 16,0 3 1 10 5 ZZW 1016,0 20 0 0,0
17.07.2018 03:00:00 22,1 17,7 8 4 18 10 O 1016,2 20 0 0,0
17.07.2018 02:00:00 22,3 17,9 4 2 9 5 NNW 1016,3 15 0 -
17.07.2018 01:00:00 23,1 18,6 5 3 10 5 ZZW 1016,7 19 0 0,0
17.07.2018 00:00:00 23,6 18,5 3 2 12 7 Z 1016,5 17 0 0,0
16.07.2018 23:00:00 24,5 17,0 3 2 6 3 ZZO 1016,3 18 0 0,0
16.07.2018 22:00:00 24,5 17,2 3 2 6 3 WNW 1015,7 16 0 0,0
16.07.2018 21:00:00 25,8 16,9 3 1 10 5 WNW 1015,8 20 59 0,0
16.07.2018 20:00:00 25,7 16,2 4 2 14 7 ZZO 1015,9 20 60 -
16.07.2018 19:00:00 25,4 16,8 8 5 15 8 ZZO 1016,0 20 60 0,0
16.07.2018 18:00:00 26,2 16,1 8 5 16 9 ZZO 1016,3 20 60 0,0
16.07.2018 17:00:00 26,1 16,4 6 3 20 11 Z 1017,0 20 60 0,0
16.07.2018 16:00:00 26,3 16,2 11 6 23 12 ZZW 1017,2 20 60 0,0
16.07.2018 15:00:00 26,9 16,2 10 5 25 14 ZW 1017,6 19 60 0,0
16.07.2018 14:00:00 26,5 16,7 9 5 23 12 ZZW 1018,2 19 60 -
16.07.2018 13:00:00 26,3 16,6 9 5 30 16 ZZW 1018,4 18 60 0,0
16.07.2018 12:00:00 26,2 17,3 13 7 33 18 ZZW 1017,7 19 60 0,0
16.07.2018 11:00:00 30,0 7,3 14 8 29 16 NW 1017,3 20 60 0,0
16.07.2018 10:00:00 29,2 8,3 13 7 26 14 WNW 1017,3 20 60 0,0
16.07.2018 09:00:00 26,9 9,3 16 9 35 19 WNW 1017,4 20 60 0,0
16.07.2018 08:00:00 25,2 9,0 11 6 22 12 WNW 1017,2 20 41 -
16.07.2018 07:00:00 23,8 7,8 9 5 17 9 W 1016,2 20 0 0,0
16.07.2018 06:00:00 25,0 7,6 8 5 24 13 NW 1015,6 20 0 0,0
16.07.2018 05:00:00 24,7 5,0 11 6 23 13 NW 1014,9 20 0 0,0
16.07.2018 04:00:00 26,7 2,5 5 3 35 19 NNW 1014,8 20 0 0,0
16.07.2018 03:00:00 26,5 0,2 19 10 36 19 NW 1014,1 15 0 0,0
16.07.2018 02:00:00 27,6 1,9 19 10 32 17 WNW 1013,9 20 0 -
16.07.2018 01:00:00 28,7 6,1 14 8 30 16 W 1013,8 20 0 0,0
16.07.2018 00:00:00 26,1 17,2 5 3 11 6 N 1013,4 17 0 0,0
15.07.2018 23:00:00 25,9 15,9 2 1 11 6 W 1012,5 20 0 0,0
15.07.2018 22:00:00 26,1 16,0 9 5 26 14 O 1011,9 20 0 0,0
15.07.2018 21:00:00 27,2 15,5 13 7 24 13 O 1011,1 20 1 0,0
15.07.2018 20:00:00 27,1 15,4 16 9 26 14 O 1011,7 20 1 -
15.07.2018 19:00:00 26,5 17,0 14 7 26 14 OZO 1011,8 20 11 0,0
15.07.2018 18:00:00 27,4 17,3 11 6 22 12 ZO 1012,1 20 57 0,0
15.07.2018 17:00:00 29,9 14,4 9 5 16 9 Z 1012,9 20 58 0,0
15.07.2018 16:00:00 29,8 11,8 5 3 17 9 Z 1013,8 20 48 0,0
15.07.2018 15:00:00 27,7 17,9 9 5 21 12 Z 1013,8 20 38 0,0
15.07.2018 14:00:00 28,7 18,8 8 4 22 12 ZZW 1014,9 20 59 -
15.07.2018 13:00:00 29,0 17,9 10 5 16 9 Z 1014,8 20 60 0,0
15.07.2018 12:00:00 29,1 19,4 6 4 17 9 Z 1014,7 17 60 0,0
15.07.2018 11:00:00 28,7 19,3 7 4 14 8 ZO 1015,2 18 60 0,0
15.07.2018 10:00:00 27,8 19,1 4 2 18 10 OZO 1016,3 20 60 0,0
15.07.2018 09:00:00 26,6 19,2 8 4 16 9 O 1016,2 20 59 0,0
15.07.2018 08:00:00 24,7 16,6 5 3 11 6 ONO 1015,7 20 9 -
15.07.2018 07:00:00 23,9 14,3 4 2 10 5 NNO 1014,8 20 0 0,0
15.07.2018 06:00:00 24,1 15,9 4 2 15 8 NO 1015,1 20 0 0,0
15.07.2018 05:00:00 24,0 13,0 4 2 11 6 ZO 1014,4 20 0 0,0
15.07.2018 04:00:00 23,8 12,1 3 1 9 5 NW 1015,0 20 0 0,0
15.07.2018 03:00:00 24,1 14,2 3 2 9 5 N 1015,1 20 0 0,0
15.07.2018 02:00:00 24,8 16,2 5 3 14 7 ONO 1015,6 20 0 -
15.07.2018 01:00:00 24,9 16,9 8 5 20 11 O 1016,3 20 0 0,0
15.07.2018 00:00:00 25,4 16,6 11 6 20 11 O 1016,3 20 0 0,0
14.07.2018 23:00:00 25,7 15,4 9 5 18 10 O 1016,1 6 0 0,0
14.07.2018 22:00:00 26,0 16,0 11 6 18 10 O 1015,8 20 0 0,0
14.07.2018 21:00:00 26,8 14,5 10 6 20 11 ZO 1015,7 20 19 0,0
14.07.2018 20:00:00 28,3 13,5 7 4 14 8 ZZO 1014,6 20 60 -
14.07.2018 19:00:00 28,7 16,9 6 3 17 9 ZZO 1014,9 20 60 0,0
14.07.2018 18:00:00 28,9 16,5 11 6 18 10 Z 1015,4 20 60 0,0
14.07.2018 17:00:00 29,3 17,1 9 5 19 10 ZZW 1016,0 20 60 0,0
14.07.2018 16:00:00 28,2 16,8 12 7 20 11 Z 1016,6 20 60 0,0
14.07.2018 15:00:00 28,6 19,3 8 5 24 13 ZZW 1016,8 20 60 0,0
14.07.2018 14:00:00 28,7 19,1 11 6 21 11 ZZO 1017,5 16 60 -
14.07.2018 13:00:00 28,9 17,8 8 4 16 9 ZZO 1017,8 20 60 0,0
14.07.2018 12:00:00 27,9 19,4 10 5 21 11 ZZO 1017,8 19 60 0,0
14.07.2018 11:00:00 27,9 19,1 10 6 16 9 ZZO 1017,6 18 60 0,0
14.07.2018 10:00:00 27,9 19,4 6 3 13 7 ZZO 1017,6 20 60 0,0
14.07.2018 09:00:00 26,6 20,9 2 1 6 4 ONO 1017,5 18 58 0,0
14.07.2018 08:00:00 24,5 20,4 4 2 6 3 N 1017,2 18 10 -
14.07.2018 07:00:00 23,4 19,1 3 1 6 3 N 1017,0 19 0 0,0
14.07.2018 06:00:00 23,7 19,4 3 2 7 4 NNO 1016,4 18 0 0,0
14.07.2018 05:00:00 23,8 19,3 1 1 5 3 ONO 1016,0 19 0 0,0
14.07.2018 04:00:00 24,6 20,3 2 1 6 3 NO 1016,1 19 0 0,0
14.07.2018 03:00:00 24,7 20,2 4 2 7 4 NW 1016,6 20 0 0,0
14.07.2018 02:00:00 25,4 20,7 2 1 5 3 Z 1016,9 20 0 -
14.07.2018 01:00:00 25,4 20,4 3 1 8 5 NW 1016,9 20 0 0,0
14.07.2018 00:00:00 25,7 20,5 1 1 8 5 W 1017,1 20 0 0,0
13.07.2018 23:00:00 25,9 20,5 4 2 8 5 ZO 1016,6 20 0 0,0

tt = temperatuur
td = dauwpunt
ff = windsnelheid
fx = windstoten
dd = windrichting
ppp = luchtdruk
vv = zicht
sd = Zonneschijnduur
rr = neerslag

Weerstations in de omgeving